User: anonymous   Login
Location: Unspecified
(35.6961°N, 0.0000°E)
Time: 17:12:26
(UTC+00:00)
Language:

Vanguard 2 Rocket - Orbit

View from above orbital plane
View from above orbital plane
View from above satellite
View from above satellite

Ground track
Ground track

The orbit data is extracted from the following two-line orbital elements,

1    12U 59001B   19140.85758468  .00000251  00000-0  13992-3 0  9999
2    12  32.8996 288.0208 1664820 166.7124 198.3454 11.44252035477463
Epoch (UTC): 20 May 2019 20:34:55
Eccentricity: 0.1664820
inclination: 32.8996°
perigee height: 555 km
apogee height: 3325 km
right ascension of ascending node: 288.0208°
argument of perigee: 166.7124°
revolutions per day: 11.44252035
mean anomaly at epoch: 198.3454°
orbit number at epoch: 47746

The dashed part of the orbit path shows where the satellite is in the earth's shadow,  

DLR